Weather History for KGRI - April, 2013

Change the Weather History Date:

Monday, April 22, 2013

  Actual Average Record
Temperature  
Mean Temperature 37 °F 53 °F  
Max Temperature 43 °F 66 °F 94 °F (1989)
Min Temperature 30 °F 40 °F 23 °F (1931)
Degree Days  
Heating Degree Days 28 13  
Month to date heating degree days 486 356  
Since 1 July heating degree days 5843 5913  
Cooling Degree Days 0 1  
Month to date cooling degree days 0 3  
Year to date cooling degree days 0 3  
Moisture  
Dew Point 35 °F    
Average Humidity 91    
Maximum Humidity 100    
Minimum Humidity 82    
Precipitation  
Precipitation 0.84 in 0.10 in 2.05 in (1957)
Month to date precipitation 3.83 1.72  
Year to date precipitation 6.60 4.73  
Snow  
Snow T in 0.10 in T in (2013)
Month to date snowfall 6.9 1.4  
Since 1 July snowfall 34.5 28.9  
Snow Depth 0.00 in    
Sea Level Pressure  
Sea Level Pressure 30.10 in    
Wind  
Wind Speed 19 mph (NNE)    
Max Wind Speed 33 mph    
Max Gust Speed 39 mph    
Visibility 7 miles    
Events Rain , Snow    
T = Trace of Precipitation, MM = Missing Value Source: NWS Daily Summary

Daily Weather History Graph

Daily Weather History Graph

Search for Another Location

Airport or City:

Trip Planner

Search our weather history database for the weather conditions in past years. The results will help you decide how hot, cold, wet, or windy it might be!

Date:

Astronomy

Apr. 22, 2013 Rise Set
Actual Time 6:43 AM CDT 8:20 PM CDT
Civil Twilight 6:14 AM CDT 8:49 PM CDT
Nautical Twilight 5:39 AM CDT 9:25 PM CDT
Astronomical Twilight 5:01 AM CDT 10:02 PM CDT
Moon 5:09 PM CDT (4/22) 4:40 AM CDT (4/22)
Length of Visible Light 14h 35m
Length of Day
13h 37m
Waxing Gibbous, 88% of the Moon is Illuminated
Apr 22
Waxing Gibbous
Apr 25
Full
May 2
Last Quarter
May 9
New
May 17
First Quarter

Hourly Weather History & Observations

Time (CDT) Temp. Windchill Dew Point Humidity Pressure Visibility Wind Dir Wind Speed Gust Speed Precip Events Conditions
12:06 AM 44.6 °F 38.1 °F 41.0 °F 87% 30.13 in 10.0 mi NNE 13.8 mph - 0.00 in   Scattered Clouds
12:39 AM 42.8 °F 35.1 °F 41.0 °F 93% 30.10 in 10.0 mi NE 16.1 mph - 0.00 in   Mostly Cloudy
12:48 AM 42.8 °F 34.8 °F 41.0 °F 93% 30.10 in 10.0 mi NE 17.3 mph - 0.00 in   Mostly Cloudy
12:53 AM 43.0 °F 35.1 °F 41.0 °F 93% 30.10 in 10.0 mi NE 17.3 mph - 0.00 in   Mostly Cloudy
1:53 AM 41.0 °F 32.8 °F 39.9 °F 96% 30.09 in 10.0 mi ENE 16.1 mph - N/A   Overcast
2:53 AM 41.0 °F 33.9 °F 39.9 °F 96% 30.06 in 8.0 mi ENE 12.7 mph - N/A   Overcast
3:31 AM 41.0 °F 33.5 °F 39.2 °F 93% 30.04 in 7.0 mi ENE 13.8 mph - N/A   Overcast
3:53 AM 41.0 °F 33.5 °F 41.0 °F 100% 30.03 in 6.0 mi ENE 13.8 mph - N/A   Overcast
4:53 AM 41.0 °F 37.1 °F 41.0 °F 100% 30.04 in 3.0 mi East 5.8 mph - N/A   Overcast
5:53 AM 41.0 °F 38.0 °F 41.0 °F 100% 30.04 in 4.0 mi ENE 4.6 mph - 0.03 in Rain Rain
6:09 AM 41.0 °F 35.2 °F 41.0 °F 100% 30.02 in 2.5 mi NE 9.2 mph - 0.07 in Rain Rain
6:23 AM 41.0 °F 35.2 °F 41.0 °F 100% 30.02 in 4.0 mi NE 9.2 mph - 0.08 in Rain Light Rain
6:53 AM 41.0 °F 34.3 °F 41.0 °F 100% 30.03 in 6.0 mi ENE 11.5 mph - 0.08 in   Overcast
7:53 AM 41.0 °F 33.5 °F 41.0 °F 100% 30.01 in 5.0 mi ENE 13.8 mph - 0.00 in   Overcast
8:53 AM 42.1 °F 36.1 °F 42.1 °F 100% 30.00 in 7.0 mi ENE 10.4 mph - N/A   Overcast
9:53 AM 43.0 °F 37.7 °F 42.1 °F 97% 29.99 in 6.0 mi ENE 9.2 mph - 0.07 in Rain Light Rain
10:53 AM 43.0 °F 36.4 °F 42.1 °F 97% 30.01 in 4.0 mi NNE 12.7 mph - 0.03 in Rain Rain
11:02 AM 42.8 °F 34.5 °F 42.8 °F 100% 29.98 in 1.8 mi NNE 18.4 mph - 0.03 in Rain Heavy Rain
11:21 AM 41.0 °F 31.6 °F 39.2 °F 93% 29.99 in 2.0 mi North 20.7 mph 25.3 mph 0.12 in Rain Rain
11:28 AM 39.2 °F 30.2 °F 39.2 °F 100% 29.99 in 1.5 mi North 17.3 mph 25.3 mph 0.19 in Rain Heavy Rain
11:35 AM 39.2 °F 30.2 °F 39.2 °F 100% 30.01 in 3.0 mi NNW 17.3 mph - 0.20 in Rain Rain
11:48 AM 39.2 °F 29.3 °F 39.2 °F 100% 30.02 in 5.0 mi NNW 20.7 mph 25.3 mph 0.22 in Rain Light Rain
11:53 AM 39.0 °F 29.0 °F 39.0 °F 100% 30.05 in 5.0 mi NNW 20.7 mph - 0.23 in Rain Rain
12:53 PM 35.1 °F 23.0 °F 34.0 °F 96% 30.09 in 6.0 mi North 24.2 mph - 0.13 in Rain Light Rain
1:08 PM 35.6 °F 23.4 °F 33.8 °F 93% 30.04 in 7.0 mi North 25.3 mph 31.1 mph 0.01 in Rain Light Rain
1:23 PM 33.8 °F 22.2 °F 33.8 °F 100% 30.04 in 4.0 mi NNE 20.7 mph 28.8 mph 0.06 in Rain Rain
1:41 PM 33.8 °F 22.8 °F 32.0 °F 93% 30.05 in 5.0 mi NNE 18.4 mph 27.6 mph 0.16 in Rain Rain
1:53 PM 34.0 °F 23.0 °F 32.0 °F 92% 30.09 in 4.0 mi NNE 18.4 mph - 0.19 in Rain Rain
2:05 PM 33.8 °F 21.3 °F 33.8 °F 100% 30.01 in 2.5 mi NE 24.2 mph 29.9 mph 0.06 in Rain Rain
2:12 PM 33.8 °F 23.5 °F 33.8 °F 100% 30.07 in 4.0 mi NNW 16.1 mph 27.6 mph 0.07 in Rain Light Rain
2:15 PM 33.8 °F 22.5 °F 33.8 °F 100% 30.08 in 6.0 mi NNW 19.6 mph - 0.07 in Rain Light Rain
2:53 PM 32.0 °F 17.9 °F 30.0 °F 92% 30.12 in 10.0 mi North 28.8 mph 35.7 mph 0.07 in   Overcast
3:02 PM 33.8 °F 20.5 °F 30.2 °F 87% 30.09 in 10.0 mi North 27.6 mph 39.1 mph N/A   Overcast
3:53 PM 32.0 °F 17.9 °F 28.9 °F 88% 30.16 in 10.0 mi North 28.8 mph 34.5 mph N/A   Overcast
4:16 PM 32.0 °F 18.6 °F 28.4 °F 87% 30.13 in 10.0 mi North 25.3 mph 35.7 mph 0.00 in   Overcast
4:53 PM 32.0 °F 19.8 °F 28.9 °F 88% 30.18 in 4.0 mi North 20.7 mph 29.9 mph 0.00 in Snow Light Snow
5:53 PM 33.1 °F 19.1 °F 28.9 °F 85% 30.20 in 10.0 mi North 29.9 mph 35.7 mph 0.01 in   Overcast
6:53 PM 33.1 °F 20.1 °F 28.9 °F 85% 30.20 in 10.0 mi North 25.3 mph 34.5 mph N/A   Overcast
7:09 PM 32.0 °F 18.6 °F 28.4 °F 87% 30.19 in 10.0 mi North 25.3 mph 36.8 mph N/A   Overcast
7:53 PM 32.0 °F 18.6 °F 28.0 °F 85% 30.23 in 10.0 mi North 25.3 mph 35.7 mph N/A   Overcast
8:18 PM 32.0 °F 18.6 °F 28.4 °F 87% 30.21 in 10.0 mi North 25.3 mph 36.8 mph N/A   Overcast
8:53 PM 32.0 °F 17.9 °F 28.0 °F 85% 30.29 in 10.0 mi North 28.8 mph 34.5 mph N/A   Overcast
9:26 PM 32.0 °F 17.9 °F 28.4 °F 87% 30.21 in 10.0 mi North 28.8 mph 36.8 mph N/A   Overcast
9:53 PM 30.9 °F 16.7 °F 27.0 °F 85% 30.28 in 10.0 mi North 27.6 mph 34.5 mph N/A   Overcast
10:01 PM 30.2 °F 15.4 °F 26.6 °F 86% 30.25 in 10.0 mi North 28.8 mph 36.8 mph N/A   Overcast
10:53 PM 30.9 °F 18.4 °F 27.0 °F 85% 30.31 in 10.0 mi North 20.7 mph 32.2 mph N/A   Overcast
11:53 PM 30.9 °F 17.2 °F 27.0 °F 85% 30.35 in 10.0 mi North 25.3 mph 33.4 mph N/A   Overcast